"Pseudo-MPEC" for C06D412

Created 2019 Feb 13 5:18:26 UT using Find_Orb

Click here for an explanation of pseudo-MPECs

 
 Astrometry: 
     C06D412  C2019 02 09.39715 09 05 38.90 +11 29 39.6    ~29Em 21.2 GVNEOCPG96
     C06D412  C2019 02 09.40301 09 05 40.98 +11 29 23.2    ~29Em 22.0 GVNEOCPG96
     C06D412  C2019 02 09.40859 09 05 42.93 +11 29 07.4    ~29Em       VNEOCPG96
     C06D412  C2019 02 09.41700 09 05 45.92 +11 28 43.1    ~29Em 21.5 GVNEOCPG96
     C06D412  C2019 02 09X$1R(X%dm;AstrometryNGH!33sq=rPeH12F_qr=O)pXah]5xT\FV06
     C06D412  C2019 02 09Kp\wi]\:USj8#Hredacted;Sk_Y7g=7PgKY.V3ZjpWYSmsbGcTJeV06
     C06D412  C2019 02 09cm-mZ2LCB`click#HPMc[s\wtRE?:oD5kmR_Fs2L.fsWG7Y(0Y_pV06
     C06D412  C2019 02 11.28419 09 18 10.91 +10 10 06.1    ~2B7m 21.8 GVNEOCPI52
     C06D412  C2019 02 11.28836 09 18 12.05 +10 09 56.6    ~2B7m       VNEOCPI52
     C06D412  C2019 02 12oD'G][Ghere1HtMV`G3WHJ6*5,ctOXlTeYI/`KGBLXj_a`4r.8blV06
     C06D412  C2019 02 12gq9RQc7h=3:OWfor;4XVuF(]^jP@9,u?k=6*ogGeYi(F*W$yl6UAV06
     C06D412  C2019 02 12:unjn_-*DVLEB_5J+s\cr(y'I['VyjJt^:hx!MvXSuT80$C):aUBV06
     C06D412  C2019 02 12,TqV(/KKaLx]^+Y8CCq@'e'\.BsSMZJ[+d;+5Xgexplanation:pV06

Station data:
(G96) Mt. Lemmon Survey  (N32.442754 W110.788720)  US/Arizona.  Observers B.
   M. Africano, E. J. Christensen, G. A. Farneth, D. C. Fuls, A. R. Gibbs, A.
   D. Grauer, H. Groeller, J. A. Johnson, R. A. Kowalski, S. M. Larson, G. J.
   Leonard, R. L. Seaman, F. C. Shelly. 1.5-m reflector + 10K CCD.
(I52) Steward Observatory, Mt. Lemmon Station  (N32.442547 W110.788920)
   US/Arizona.  Observers B. M. Africano, E. J. Christensen, G. A. Farneth,
   D. C. Fuls, A. R. Gibbs, A. D. Grauer, H. Groeller, J. A. Johnson, R. A.
   Kowalski, S. M. Larson, G. J. Leonard, R. L. Seaman, F. C. Shelly. 1.0-m
   reflector + CCD.
(V06) Catalina Sky Survey-Kuiper  (N32.416847 W110.732550)  US/Arizona.
   Observers B. M. Africano, E. J. Christensen, G. A. Farneth, D. C. Fuls, A.
   R. Gibbs, A. D. Grauer, H. Groeller, J. A. Johnson, R. A. Kowalski, S. M.
   Larson, G. J. Leonard, R. L. Seaman, F. C. Shelly. 1.55-m reflector + CCD.

Orbital elements:  C06D412
   Perihelion 2019 Jan 11.987200 +/- 0.0185 TT = 23:41:34 (JD 2458495.487200)
Epoch 2019 Feb 12.0 TT = JDT 2458526.5   Earth MOID: 0.0144   Ma: 0.0114
M  21.74764519 +/- 0.058            (J2000 ecliptic)          AutoNEOCP
n   0.70124738 +/- 0.0017           Peri.  161.83521 +/- 0.025
a   1.25474424 +/- 0.00203          Node   307.70913 +/- 0.007
e   0.2051807 +/- 0.00122           Incl.    0.79404 +/- 0.0043
P   1.41/513.36d           H 28.4   G  0.15   U  8.5  
q 0.99729488 +/- 8.96e-5    Q 1.51219360 +/- 0.00398
From 13 observations 2019 Feb. 9-12; mean residual 0".21
Residuals in arcseconds: 
190209 G96  .05-  .55-    190209 V06  .29-  .16-    190212 V06  .01+  .28+    
190209 G96  .26+  .14-    190209 V06  .06-  .27+    190212 V06  .03+  .11+    
190209 G96  .04-  .10+    190211 I52  .15+  .25-    190212 V06  .03-  .06+    
190209 G96  .03-  .04+    190211 I52  .24-  .02-    
190209 V06  .25+  .49+    190212 V06  .08+  .22-    

Ephemerides (geocentric):
Date (UTC) HH   RA              Dec         delta   r     elong  mag " sig PA
---- -- -- --  -------------   -----------  ------ ------ -----  --- ---- ---
2019 02 13 05  09 28 56.492   +09 01 13.68  .04069 1.0277 174.0 21.9 .904 122
2019 02 13 06  09 29 09.433   +08 59 49.06  .04076 1.0278 174.0 21.9 .912 122
2019 02 13 07  09 29 22.332   +08 58 24.73  .04083 1.0279 174.0 21.9 .919 121
2019 02 13 08  09 29 35.188   +08 57 00.66  .04090 1.0280 174.0 21.9 .927 121
2019 02 13 09  09 29 48.002   +08 55 36.87  .04097 1.0280 174.0 21.9 .934 120
2019 02 13 10  09 30 00.774   +08 54 13.36  .04104 1.0281 174.0 21.9 .941 120
2019 02 13 11  09 30 13.504   +08 52 50.11  .04110 1.0282 174.0 21.9 .948 120
2019 02 13 12  09 30 26.192   +08 51 27.14  .04117 1.0283 174.0 21.9 .955 119
2019 02 13 13  09 30 38.838   +08 50 04.44  .04124 1.0283 174.0 22.0 .962 119
2019 02 13 14  09 30 51.443   +08 48 42.01  .04131 1.0284 174.0 22.0 .969 118
2019 02 13 15  09 31 04.007   +08 47 19.85  .04138 1.0285 174.0 22.0 .976 118
2019 02 13 16  09 31 16.530   +08 45 57.96  .04145 1.0286 174.0 22.0 .982 118
2019 02 13 17  09 31 29.011   +08 44 36.33  .04152 1.0286 174.0 22.0 .989 117
2019 02 13 18  09 31 41.452   +08 43 14.97  .04159 1.0287 174.0 22.0 1.00 117
2019 02 13 19  09 31 53.852   +08 41 53.88  .04166 1.0288 174.0 22.0 1.00 117
2019 02 13 20  09 32 06.212   +08 40 33.06  .04173 1.0289 174.0 22.0 1.01 116
2019 02 13 21  09 32 18.531   +08 39 12.49  .04180 1.0289 174.0 22.0 1.01 116
2019 02 13 22  09 32 30.811   +08 37 52.20  .04187 1.0290 174.0 22.0 1.02 116
2019 02 13 23  09 32 43.050   +08 36 32.16  .04193 1.0291 174.0 22.0 1.03 115
2019 02 14 00  09 32 55.249   +08 35 12.39  .04200 1.0292 174.0 22.0 1.03 115
2019 02 14 01  09 33 07.409   +08 33 52.88  .04207 1.0293 174.0 22.0 1.04 115
2019 02 14 02  09 33 19.529   +08 32 33.63  .04214 1.0293 174.0 22.0 1.04 115
2019 02 14 03  09 33 31.610   +08 31 14.64  .04221 1.0294 174.0 22.0 1.05 114
2019 02 14 04  09 33 43.652   +08 29 55.91  .04228 1.0295 174.0 22.0 1.05 114
2019 02 14 05  09 33 55.655   +08 28 37.44  .04235 1.0296 174.0 22.0 1.06 114
2019 02 14 06  09 34 07.619   +08 27 19.22  .04242 1.0296 174.0 22.0 1.06 113
2019 02 14 07  09 34 19.544   +08 26 01.27  .04249 1.0297 174.0 22.0 1.07 113
2019 02 14 08  09 34 31.430   +08 24 43.57  .04257 1.0298 174.0 22.0 1.07 113
2019 02 14 09  09 34 43.279   +08 23 26.12  .04264 1.0299 174.0 22.0 1.08 113
2019 02 14 10  09 34 55.089   +08 22 08.93  .04271 1.0300 174.0 22.0 1.08 112
2019 02 14 11  09 35 06.860   +08 20 51.99  .04278 1.0300 174.0 22.0 1.09 112
2019 02 14 12  09 35 18.594   +08 19 35.31  .04285 1.0301 174.0 22.0 1.09 112
2019 02 14 13  09 35 30.291   +08 18 18.88  .04292 1.0302 174.0 22.0 1.10 112
2019 02 14 14  09 35 41.949   +08 17 02.70  .04299 1.0303 174.0 22.0 1.10 111
2019 02 14 15  09 35 53.570   +08 15 46.77  .04306 1.0303 174.0 22.0 1.10 111
2019 02 14 16  09 36 05.154   +08 14 31.10  .04313 1.0304 174.0 22.1 1.11 111
2019 02 14 17  09 36 16.700   +08 13 15.67  .04320 1.0305 174.0 22.1 1.11 111
2019 02 14 18  09 36 28.210   +08 12 00.49  .04327 1.0306 174.0 22.1 1.12 111
2019 02 14 19  09 36 39.682   +08 10 45.55  .04334 1.0307 174.0 22.1 1.12 110
2019 02 14 20  09 36 51.118   +08 09 30.87  .04342 1.0307 174.0 22.1 1.12 110
2019 02 14 21  09 37 02.517   +08 08 16.43  .04349 1.0308 174.0 22.1 1.13 110
2019 02 14 22  09 37 13.880   +08 07 02.24  .04356 1.0309 174.0 22.1 1.13 110
2019 02 14 23  09 37 25.206   +08 05 48.29  .04363 1.0310 174.0 22.1 1.13 109
2019 02 15 00  09 37 36.496   +08 04 34.59  .04370 1.0310 174.0 22.1 1.14 109
2019 02 15 01  09 37 47.751   +08 03 21.13  .04377 1.0311 174.0 22.1 1.14 109
2019 02 15 02  09 37 58.969   +08 02 07.91  .04384 1.0312 174.0 22.1 1.14 109
2019 02 15 03  09 38 10.151   +08 00 54.93  .04392 1.0313 174.0 22.1 1.15 109
2019 02 15 04  09 38 21.298   +07 59 42.20  .04399 1.0314 174.0 22.1 1.15 108